Location: Ponte Samoggia
(44.5667°N, 11.1333°E)
Time: 00:15:00
(UTC+00:00)

IDEFIX/ARIANE 42P - Pass Details

Date: 26 May 2022
Orbit: 785 x 802 km, 98.4° (Epoch: 26 June)

Event Time Altitude Azimuth Distance (km) Brightness Sun altitude
Rises 01:38:39 0° 13° (NNE) 3,323 7.1 -16.3°
Reaches altitude 10° 01:41:00 10° 13° (NNE) 2,389 6.1 -16.1°
Maximum altitude 01:46:18 89° 284° (WNW) 808 2.6 -15.5°
Enters shadow 01:49:54 21° 196° (SSW) 1,731 3.8 -15.1°
